This demonstration page uses our WeatherBlox Daily Observations layout. Learn more.

Left ArrowRight Arrow

34.02893, -84.19858

Hourly Observations for February 24, 2017

Temp ( °F °C ) Dew Point ( °F °C ) Humidity (%) Winds ( mph kmh ) Pressure ( in mb ) Visibility ( mi km ) Precip ( " mm )
12:53 am 00:53 Clear 61 16.1 49 9.4 65 65 SE 3 6 29.85 1011 10 16 0.00 0.00
1:53 am 01:53 Clear 61 16.1 50 10 67 67 SE 5 7 29.85 1011 10 16 0.00 0.00
2:53 am 02:53 Clear 60 15.6 50 10 70 70 SE 5 7 29.84 1011 10 16 0.00 0.00
3:53 am 03:53 Clear 60 15.6 52 11.1 75 75 SE 5 7 29.83 1010 10 16 0.00 0.00
4:53 am 04:53 Clear 58 14.4 52 11.1 81 81 Calm 29.85 1011 10 16 0.00 0.00
5:53 am 05:53 Clear 52 11.1 49 9.4 89 89 Calm 29.87 1012 10 16 0.00 0.00
6:53 am 06:53 Clear 53 11.7 50 10 89 89 Calm 29.89 1012 10 16 0.00 0.00
7:53 am 07:53 Sunny 54 12.2 52 11.1 93 93 Calm 29.91 1013 10 16 0.00 0.00
8:53 am 08:53 Sunny 62 16.7 56 13.3 80 80 SSE 7 11 29.90 1013 10 16 0.00 0.00
9:53 am 09:53 Sunny 66 18.9 57 13.9 73 73 S 6 9 29.90 1013 10 16 0.00 0.00
10:53 am 10:53 Sunny 70 21.1 55 12.8 59 59 SE 8 13 29.89 1012 10 16 0.00 0.00
11:53 am 11:53 Mostly Sunny 71 21.7 55 12.8 57 57 S 8 13 29.88 1012 10 16 0.00 0.00
12:53 pm 12:53 Sunny 74 23.3 55 12.8 52 52 S 8 13 29.84 1011 10 16 0.00 0.00
1:53 pm 13:53 Mostly Cloudy 76 24.4 54 12.2 47 47 S 7 11 29.81 1010 10 16 0.00 0.00
2:53 pm 14:53 Partly Cloudy 76 24.4 53 11.7 45 45 SSE 9 15 29.78 1009 10 16 0.00 0.00
3:53 pm 15:53 Mostly Sunny 77 25 52 11.1 42 42 VRB 7 11 29.76 1008 10 16 0.00 0.00
4:53 pm 16:53 Sunny 77 25 51 10.6 40 40 SSE 10 17 29.75 1007 10 16 0.00 0.00
5:53 pm 17:53 Sunny 75 23.9 51 10.6 43 43 S 7 11 29.76 1008 10 16 0.00 0.00
6:53 pm 18:53 Clear 71 21.7 51 10.6 49 49 S 6 9 29.77 1008 10 16 0.00 0.00
7:53 pm 19:53 Clear 68 20 51 10.6 55 55 SSE 5 7 29.78 1008 10 16 0.00 0.00
8:53 pm 20:53 Mostly Clear 68 20 51 10.6 55 55 S 5 7 29.77 1008 10 16 0.00 0.00
9:53 pm 21:53 Cloudy 68 20 52 11.1 57 57 S 5 7 29.77 1008 10 16 0.00 0.00
10:53 pm 22:53 Partly Cloudy 68 20 52 11.1 57 57 SSE 7 11 29.75 1007 10 16 0.00 0.00
11:53 pm 23:53 Mostly Cloudy 67 19.4 53 11.7 61 61 SSW 6 9 29.74 1007 10 16 0.00 0.00

Powered by AerisWeather